Location: ????????
(55.3155°N, 39.2900°E)
Time: 06:57:23
(UTC+00:00)

ISS - Pass Details

Date: 17 November 2025
Orbit: 416 x 421 km, 51.6° (Epoch: 08 December)

Event Time Altitude Azimuth Distance (km) Brightness Sun altitude
Rises 15:38:18 0° 233° (SW) 2,363 1.0 -19.9°
Reaches altitude 10° 15:40:33 10° 222° (SW) 1,500 -0.3 -20.2°
Enters shadow 15:42:59 28° 179° (S) 829 -2.3 -20.6°
